Regional Weather Roundup
Issued by NWS

Home | Current Version | Previous Version | Text Only | Print | Product List | Glossary Off
Versions: 1 2 3 4 5 6 7 8 9 10 11 12 13 14 15 16 17 18 19 20 21 22 23 24 25 26 27 28 29 30 31 32 33 34 35 36 37 38 39 40 41 42 43 44 45 46 47 48 49 50

000
ASUS45 KCYS 302310
RWRWY

WYOMING REGIONAL WEATHER ROUNDUP
NATIONAL WEATHER SERVICE CHEYENNE WY
400 PM MST FRI JAN 30 2015

NOTE:  "FAIR" INDICATES FEW OR NO CLOUDS BELOW 12,000 FEET
WITH NO SIGNIFICANT WEATHER AND/OR OBSTRUCTIONS TO VISIBILITY.

WYZ001-310000-
YELLOWSTONE NATIONAL PARK

CITY           SKY/WX    TMP DP  RH WIND       PRES   REMARKS
LK YELLOWSTONE   N/A     11   5  77 CALM      30.15F
W YELLOWSTONE  NOT AVBL

$$
WYZ002>013-054>058-071-098>099-310000-
NORTHERN WYOMING

CITY           SKY/WX    TMP DP  RH WIND       PRES   REMARKS
JACKSON        SUNNY     21  18  86 CALM      30.14S
CODY           FAIR      39  27  60 N3        30.14S
GREYBULL       FOG       29  28  96 CALM      30.17F VSB 1/4
WORLAND        FAIR      30  26  85 W3        30.17S
SHERIDAN       FAIR      48  18  30 NE5       30.14F
BUFFALO        FAIR      44  17  33 N8        30.15F
GILLETTE       FAIR      45  22  40 N9        30.15S
HULETT           N/A    N/A N/A N/A MISG        N/A
NEWCASTLE      FAIR      43  27  52 NW6       30.11S

$$
WYZ014>020-022>026-101>103-310000-
CENTRAL WYOMING

CITY           SKY/WX    TMP DP  RH WIND       PRES   REMARKS
BIG PINEY      CLOUDY    34  21  59 NE7       30.11F WCI  28
PINEDALE       CLOUDY    30  18  59 CALM      30.13F
DUBOIS         FAIR      34   9  35 SE13      30.11R WCI  25
LANDER         CLOUDY    35  27  72 NE3       30.13S
RIVERTON       FAIR      36  29  75 SE3       30.15R
CASPER         FAIR      41  18  39 N9        30.14R
DOUGLAS        FAIR      43  19  38 N8        30.13S

$$
WYZ021-027>030-104>119-310000-
SOUTHERN WYOMING

CITY           SKY/WX    TMP DP  RH WIND       PRES   REMARKS
EVANSTON       CLOUDY    34  27  75 NE7       30.06F WCI  28
KEMMERER       CLOUDY    34  25  69 NE8       30.08F WCI  27
FORT BRIDGER   CLOUDY    35  30  79 NE8       30.11S WCI  29
ROCK SPRINGS   CLOUDY    35  31  85 NE10      30.08F WCI  27
DIXON          CLOUDY    40  33  78 SW3       30.07F
RAWLINS        CLOUDY    38  31  76 N8        30.10S WCI  32
SARATOGA       CLOUDY    37  32  81 N9        30.09S WCI  31
LARAMIE        PTSUNNY   36  29  75 NE6       30.09S WCI  31
CHEYENNE       FAIR      41  24  51 NE10      30.09S
TORRINGTON     FAIR      46  27  47 CALM      30.08F
PINE BLUFFS    FAIR      41  27  56 NE7       30.09S

$$


USA.gov is the U.S. government's official web portal to all federal, state and local government web resources and services.